This is the latest recevied weather packets stored in our database for station/object N9CQS-15. If no packets are shown the sender has not sent any weather packets the latest 10 day(s).
| Time | Temp. | Humidity | Pressure | Rain* | Wind** | Luminosity | Snow |
|---|---|---|---|---|---|---|---|
| 1777994342 | 9.44° C | 80% | 1009.8 hPa | 0.25 mm | - | - | - |
| 1777993741 | 9.44° C | 81% | 1010.2 hPa | 0.25 mm | - | - | - |
| 1777993142 | 9.44° C | 79% | 1010.5 hPa | 0 mm | - | - | - |
| 1777992542 | 10° C | 77% | 1011.1 hPa | 0 mm | - | - | - |
| 1777991941 | 10° C | 75% | 1010.7 hPa | 0 mm | - | - | - |
| 1777991341 | 10.56° C | 74% | 1010.5 hPa | 0 mm | - | - | - |
| 1777990741 | 10.56° C | 72% | 1009.9 hPa | 0 mm | - | - | - |
| 1777989542 | 10.56° C | 71% | 1010.2 hPa | 0 mm | - | - | - |
| 1777988942 | 11.11° C | 72% | 1010.3 hPa | 0 mm | - | - | - |
| 1777988341 | 11.11° C | 72% | 1010.1 hPa | 0 mm | - | - | - |
| 1777987741 | 11.11° C | 72% | 1010.1 hPa | 0 mm | - | - | - |
| 1777987142 | 11.11° C | 69% | 1010 hPa | 0 mm | - | - | - |
| 1777986542 | 11.67° C | 70% | 1009.7 hPa | 0 mm | - | - | - |
| 1777985942 | 11.67° C | 71% | 1009.4 hPa | 0 mm | - | - | - |
| 1777985341 | 11.67° C | 72% | 1008.7 hPa | 0 mm | - | - | - |
| 1777984742 | 11.67° C | 80% | 1009.2 hPa | 0 mm | - | - | - |
| 1777984142 | 11.67° C | 80% | 1009.6 hPa | - | - | - | - |
| 1777983542 | 11.67° C | 80% | 1009.4 hPa | - | - | - | - |
| 1777982942 | 11.67° C | 79% | 1009.4 hPa | - | - | - | - |
| 1777982342 | 11.67° C | 74% | 1009.3 hPa | 0 mm | - | - | - |
| 1777981742 | 11.67° C | 75% | 1009 hPa | 0 mm | - | - | - |
| 1777981142 | 12.22° C | 82% | 1008.3 hPa | 0 mm | - | - | - |
| 1777980542 | 12.22° C | 85% | 1008.2 hPa | - | - | - | - |
| 1777979942 | 12.22° C | 84% | 1008 hPa | - | - | - | - |
| 1777979342 | 12.78° C | 82% | 1007.8 hPa | 0 mm | - | - | - |
* Rain latest hour (hover to see other rain measurements)
** Current wind speed in m/s (hover to see current wind gust speed)